Location: Heilbronn
(49.1548°N, 9.2780°E)
Time: 05:45:59
(UTC+01:00)

ISS - Pass Details

Date: 07 January 2018
Orbit: 401 x 406 km, 51.6° (Epoch: 17 January)

Event Time Altitude Azimuth Distance (km) Brightness Sun altitude
Exits shadow 05:58:09 43° 41° (NE) 579 -2.9 -21.7°
Drops below altitude 10° 06:00:44 10° 78° (ENE) 1,468 0.0 -21.3°
Sets 06:02:52 0° 83° (E) 2,329 1.3 -20.9°
